Regional Weather Roundup
Issued by NWS Kansas City/Pleasant Hill, MO

Home | Current Version | Previous Version | Text Only | Print | Product List | Glossary On
Versions: 1 2 3 4 5 6 7 8 9 10 11 12 13 14 15 16 17 18 19 20 21 22 23 24 25 26 27 28 29 30 31 32 33 34 35 36 37 38 39 40 41 42 43 44 45 46 47 48 49 50
000
ASUS43 KEAX 031511
RWREAX

WEATHER ROUNDUP FOR EASTERN KANSAS AND NORTHWEST MISSOURI
NATIONAL WEATHER SERVICE KANSAS CITY/PLEASANT HILL MO
1000 AM CDT SUN MAY 03 2015

KSZ040-057-103>105-MOZ028-029-037-043-031600-
...KANSAS CITY METROPOLITAN AREA...

CITY           SKY/WX    TMP DP  RH WIND       PRES   REMARKS
K.C. INTL      PTSUNNY   70  56  61 S20       29.86S
K.C. DOWNTOWN  PTSUNNY   71  56  58 S12       29.87S
LEES SUMMIT    PTSUNNY   67  54  63 S9        29.89F
OLATHE - IXD   PTSUNNY   68  55  63 S17       29.88F
OLATHE - OJC   PTSUNNY   69  56  62 S15G22    29.87F
LAWRENCE       PTSUNNY   69  57  65 S14G20    29.86S

$$

MOZ001>008-011>017-020>025-030>033-038>040-044>046-053-054-031600-
...NORTHERN AND CENTRAL MISSOURI...

CITY           SKY/WX    TMP DP  RH WIND       PRES   REMARKS
ST. JOSEPH     MOSUNNY   73  58  59 SW17G29   29.83F
MOSBY          PTSUNNY   68  54  60 S14       29.88S
WARRENSBURG    CLOUDY    64  54  68 S10G16    29.91F
WHITEMAN AFB   PTSUNNY   70  55  58 SW18G28   29.92S
CLINTON        CLOUDY    72  55  56 SW15G21   29.94F
SEDALIA        PTSUNNY   73  54  51 SW16G28   29.94F
WARSAW         NOT AVBL
MARSHALL       MOSUNNY   75  57  53 SW15G23   29.94R
CHILLICOTHE      N/A     71  56  58 S13G23    29.88F
MOBERLY        MOSUNNY   73  52  46 SW16G24   29.94F
KIRKSVILLE     SUNNY     71  57  61 S13       29.92R

$$

MOZ041-047>049-056>058-063>065-088>090-097-031600-
...EASTERN AND SOUTHERN MISSOURI...

CITY           SKY/WX    TMP DP  RH WIND       PRES   REMARKS
ST. LOUIS INTL PTSUNNY   75  50  41 SW8       30.03S
SPIRIT OF STL  PTSUNNY   73  50  44 S7        30.01F
COLUMBIA       MOSUNNY   70  54  56 S14G22    29.97F
JEFFERSON CITY MOSUNNY   71  52  50 S8        29.98F
MEXICO         MOSUNNY   72  55  56 S13       29.96F
HANNIBAL       PTSUNNY   73  52  46 S12       29.95F
ROLLA          PTSUNNY   69  52  54 S12       30.01S
LEBANON        MOSUNNY   72  52  49 SW15      30.02R
OSAGE BEACH    MOSUNNY   72  54  53 S8        29.99S
SPRINGFIELD    PTSUNNY   68  52  56 S16       30.00F
BRANSON        PTSUNNY   68  54  60 S8        30.04F
NEVADA         MOSUNNY   72  57  60 S16       29.96S
JOPLIN         MOSUNNY   71  55  56 S15G22    29.97F
WEST PLAINS    MOSUNNY   70  45  40 S10       30.07F

$$

IAZ060-094-KSZ022-034>040-054-083-096-NEZ052-066-093-031600-
...KANSAS...SOUTHEAST NEBRASKA AND IOWA...

CITY           SKY/WX    TMP DP  RH WIND       PRES   REMARKS
TOPEKA         PTSUNNY   70  57  63 S22       29.84F
MANHATTAN      MOSUNNY   74  59  59 SW17      29.80S
EMPORIA        MOSUNNY   70  55  59 S21G30    29.85S
CHANUTE        MOSUNNY   72  56  57 S17       29.92S
WICHITA        PTSUNNY   70  55  59 S21       29.86R
OMAHA          PTSUNNY   70  59  68 S13       29.75S
LINCOLN        SUNNY     72  57  59 SW17      29.74F
FALLS CITY     MOSUNNY   72  57  59 S21G26    29.79F
LAMONI         MOSUNNY   68  57  68 S13       29.83F
DES MOINES     PTSUNNY   71  57  61 S15       29.81R

$$




USA.gov is the U.S. government's official web portal to all federal, state and local government web resources and services.